FW2982 Weather Reports


Display with metric or nautical units.
time (UTC)temp
F
wind
direction
speed
MPH
gust
MPH
rain 1hr
in
rain 24hr
in
rain mn
in
humidity
%
barometer
mb
20260508235644 66 165 1.0 2.0 0.00 0.00 0.00 44 1009.2
20260508235425 66 245 0.0 1.0 0.00 0.00 0.00 45 1009.1
20260508234645 66 245 0.0 1.0 0.00 0.00 0.00 45 1009.1
20260508234419 67 245 0.0 2.0 0.00 0.00 0.00 45 1009.2
20260508233639 67 245 0.0 3.0 0.00 0.00 0.00 45 1009.2
20260508233139 67 247 0.0 3.0 0.00 0.00 0.00 45 1009.2
20260508232641 67 110 0.0 2.0 0.00 0.00 0.00 44 1009.1
20260508232137 67 104 0.0 2.0 0.00 0.00 0.00 44 1009.1
20260508231637 67 103 0.0 2.0 0.00 0.00 0.00 44 1009.1
20260508231131 67 149 1.0 2.0 0.00 0.00 0.00 42 1009.0
20260508230909 68 120 0.0 2.0 0.00 0.00 0.00 42 1009.0
20260508230123 68 118 0.0 5.0 0.00 0.00 0.00 42 1009.1
20260508225624 68 188 2.0 5.0 0.00 0.00 0.00 40 1009.0
20260508225403 68 237 2.0 5.0 0.00 0.00 0.00 40 1008.9
20260508224953 69 255 0.0 1.0 0.00 0.00 0.00 39 1008.8
20260508224700 69 210 2.0 5.0 0.00 0.00 0.00 39 1008.9
20260508224423 69 58 1.0 4.0 0.00 0.00 0.00 41 1008.8
20260508223121 69 257 0.0 2.0 0.00 0.00 0.00 39 1008.8
20260508222620 69 257 0.0 2.0 0.00 0.00 0.00 38 1008.8
20260508222122 70 257 0.0 1.0 0.00 0.00 0.00 40 1008.9
20260508221621 70 257 0.0 2.0 0.00 0.00 0.00 37 1008.9
20260508221121 70 257 1.0 2.0 0.00 0.00 0.00 38 1008.9
20260508220620 70 320 0.0 2.0 0.00 0.00 0.00 36 1009.0
20260508220401 71 320 0.0 2.0 0.00 0.00 0.00 34 1009.0
20260508215620 71 4 0.0 3.0 0.00 0.00 0.00 35 1009.0
20260508215120 71 209 0.0 4.0 0.00 0.00 0.00 33 1009.0
20260508214619 72 206 2.0 10.0 0.00 0.00 0.00 32 1008.9
20260508214358 73 265 2.0 10.0 0.00 0.00 0.00 31 1008.8
20260508213621 73 209 3.0 4.0 0.00 0.00 0.00 31 1008.8
20260508213121 73 283 1.0 6.0 0.00 0.00 0.00 33 1008.9
20260508212620 73 344 3.0 6.0 0.00 0.00 0.00 32 1008.9
20260508212119 73 220 1.0 4.0 0.00 0.00 0.00 33 1009.0
20260508211857 73 154 2.0 4.0 0.00 0.00 0.00 33 1009.0
20260508211119 72 344 1.0 3.0 0.00 0.00 0.00 34 1009.0
20260508210619 72 243 1.0 3.0 0.00 0.00 0.00 34 1008.9
20260508210120 72 247 2.0 6.0 0.00 0.00 0.00 32 1008.9
20260508205618 73 135 0.0 6.0 0.00 0.00 0.00 31 1008.9
20260508205118 73 276 2.0 5.0 0.00 0.00 0.00 31 1009.1
20260508204619 73 279 2.0 5.0 0.00 0.00 0.00 29 1009.0
20260508204118 73 326 2.0 7.0 0.00 0.00 0.00 33 1009.1
20260508203855 74 345 3.0 7.0 0.00 0.00 0.00 32 1009.2
20260508203119 74 238 2.0 5.0 0.00 0.00 0.00 30 1009.2
20260508202620 74 217 2.0 6.0 0.00 0.00 0.00 32 1009.2
20260508202118 74 188 2.0 7.0 0.00 0.00 0.00 32 1009.3
20260508201859 74 196 2.0 7.0 0.00 0.00 0.00 30 1009.3
20260508201117 74 265 3.0 5.0 0.00 0.00 0.00 32 1009.5
20260508200617 74 255 2.0 9.0 0.00 0.00 0.00 32 1009.4
20260508200142 73 199 2.0 9.0 0.00 0.00 0.00 32 1009.4
20260508200133 73 303 3.0 9.0 0.00 0.00 0.00 31 1009.4
20260508195359 73 196 1.0 9.0 0.00 0.00 0.00 30 1009.6
20260508194617 74 257 2.0 6.0 0.00 0.00 0.00 31 1009.6
20260508194118 73 278 2.0 5.0 0.00 0.00 0.00 31 1009.8
20260508193619 72 243 1.0 6.0 0.00 0.00 0.00 34 1009.9
20260508193117 74 278 2.0 6.0 0.00 0.00 0.00 34 1010.0
20260508192618 73 264 2.0 5.0 0.00 0.00 0.00 36 1010.0
20260508192117 74 45 2.0 7.0 0.00 0.00 0.00 36 1009.9
20260508191618 74 173 2.0 11.0 0.00 0.00 0.00 32 1010.0
20260508191117 74 254 4.0 11.0 0.00 0.00 0.00 31 1010.1
20260508190616 74 202 2.0 7.0 0.00 0.00 0.00 31 1010.2
20260508190116 74 233 3.0 7.0 0.00 0.00 0.00 33 1010.4
20260508185619 74 324 2.0 7.0 0.00 0.00 0.00 34 1010.3
20260508185357 74 207 3.0 5.0 0.00 0.00 0.00 32 1010.4
20260508184855 73 223 0.0 5.0 0.00 0.00 0.00 34 1010.5
20260508184115 73 161 1.0 5.0 0.00 0.00 0.00 36 1010.5
20260508183616 73 324 1.0 5.0 0.00 0.00 0.00 34 1010.7
20260508183116 72 278 2.0 4.0 0.00 0.00 0.00 34 1010.7
20260508182615 73 327 1.0 6.0 0.00 0.00 0.00 33 1010.8
20260508182116 72 272 1.0 6.0 0.00 0.00 0.00 35 1010.8
20260508181642 74 228 1.0 6.0 0.00 0.00 0.00 35 1010.7
20260508181633 74 250 1.0 4.0 0.00 0.00 0.00 32 1010.8
20260508180853 74 307 2.0 6.0 0.00 0.00 0.00 32 1010.8
20260508180144 73 334 3.0 6.0 0.00 0.00 0.00 31 1011.1
20260508180134 74 107 2.0 6.0 0.00 0.00 0.00 35 1010.9
20260508175115 73 298 3.0 9.0 0.00 0.00 0.00 33 1011.1
20260508174615 74 251 2.0 9.0 0.00 0.00 0.00 34 1011.1
20260508174115 75 258 2.0 7.0 0.00 0.00 0.00 32 1011.0
20260508173615 74 302 3.0 7.0 0.00 0.00 0.00 32 1011.0
20260508173113 74 247 3.0 7.0 0.00 0.00 0.00 34 1011.2
20260508172853 75 309 3.0 9.0 0.00 0.00 0.00 33 1011.2
20260508172110 74 55 2.0 9.0 0.00 0.00 0.00 31 1011.3
20260508171851 74 197 2.0 5.0 0.00 0.00 0.00 36 1011.5
20260508171111 73 259 3.0 7.0 0.00 0.00 0.00 33 1011.4
20260508170611 73 224 2.0 7.0 0.00 0.00 0.00 32 1011.6
20260508170111 74 189 3.0 7.0 0.00 0.00 0.00 31 1011.7
20260508165609 75 271 1.0 4.0 0.00 0.00 0.00 35 1011.6
20260508165109 74 259 2.0 5.0 0.00 0.00 0.00 36 1011.7
20260508164847 74 21 2.0 5.0 0.00 0.00 0.00 37 1011.7
20260508164107 74 207 2.0 5.0 0.00 0.00 0.00 36 1011.8
20260508163606 74 313 2.0 5.0 0.00 0.00 0.00 35 1011.9
20260508163105 73 226 2.0 7.0 0.00 0.00 0.00 35 1011.8
20260508162845 74 250 2.0 7.0 0.00 0.00 0.00 36 1012.0
20260508162103 73 200 3.0 6.0 0.00 0.00 0.00 33 1012.1
20260508161603 74 320 1.0 7.0 0.00 0.00 0.00 38 1012.3
20260508161103 72 293 3.0 7.0 0.00 0.00 0.00 35 1012.3
20260508160604 71 358 3.0 6.0 0.00 0.00 0.00 33 1012.4
20260508160103 72 302 2.0 5.0 0.00 0.00 0.00 32 1012.5
20260508155538 72 62 2.0 7.0 0.00 0.00 0.00 36 1012.5
20260508155128 73 286 2.0 6.0 0.00 0.00 0.00 39 1012.6
20260508155115 71 285 3.0 10.0 0.00 0.00 0.00 35 1012.5
20260508154837 72 247 4.0 10.0 0.00 0.00 0.00 35 1012.7
20260508153534 71 259 2.0 5.0 0.00 0.00 0.00 36 1012.6
20260508153031 71 240 2.0 7.0 0.00 0.00 0.00 36 1012.6
20260508152532 72 279 3.0 7.0 0.00 0.00 0.00 37 1012.7
20260508152031 71 275 3.0 6.0 0.00 0.00 0.00 35 1012.7
20260508151526 72 14 0.0 5.0 0.00 0.00 0.00 38 1012.8
20260508151027 72 42 2.0 6.0 0.00 0.00 0.00 37 1013.0
20260508150527 72 262 3.0 13.0 0.00 0.00 0.00 36 1013.0
20260508150029 72 210 4.0 13.0 0.00 0.00 0.00 36 1013.0
20260508145526 72 288 4.0 10.0 0.00 0.00 0.00 36 1013.1
20260508145307 72 261 2.0 4.0 0.00 0.00 0.00 38 1013.1
20260508144804 72 299 1.0 4.0 0.00 0.00 0.00 38 1013.1
20260508144024 70 69 1.0 4.0 0.00 0.00 0.00 40 1013.1
20260508143524 69 281 1.0 4.0 0.00 0.00 0.00 38 1013.2
20260508143302 69 223 1.0 4.0 0.00 0.00 0.00 38 1013.2
20260508142522 69 302 1.0 4.0 0.00 0.00 0.00 42 1013.2
20260508142300 69 11 1.0 5.0 0.00 0.00 0.00 41 1013.3
20260508141518 69 213 2.0 5.0 0.00 0.00 0.00 40 1013.3
20260508141021 68 257 1.0 4.0 0.00 0.00 0.00 42 1013.3
20260508140520 67 41 1.0 4.0 0.00 0.00 0.00 41 1013.3
20260508140020 67 227 1.0 4.0 0.00 0.00 0.00 43 1013.4
20260508135518 67 223 1.0 2.0 0.00 0.00 0.00 42 1013.3
20260508135017 66 255 0.0 2.0 0.00 0.00 0.00 46 1013.3
20260508134757 66 245 0.0 5.0 0.00 0.00 0.00 44 1013.4
20260508134017 66 243 2.0 5.0 0.00 0.00 0.00 42 1013.4
20260508133516 67 289 0.0 4.0 0.00 0.00 0.00 44 1013.6
20260508133015 65 7 0.0 4.0 0.00 0.00 0.00 45 1013.5
20260508132516 66 343 0.0 7.0 0.00 0.00 0.00 44 1013.6
20260508132254 66 285 1.0 7.0 0.00 0.00 0.00 44 1013.6
20260508131510 65 347 0.0 3.0 0.00 0.00 0.00 46 1013.6
20260508131011 65 227 1.0 3.0 0.00 0.00 0.00 45 1013.7
20260508130511 65 343 0.0 6.0 0.00 0.00 0.00 49 1013.7
20260508130011 65 331 1.0 6.0 0.00 0.00 0.00 49 1013.7
20260508125509 64 281 0.0 3.0 0.00 0.00 0.00 51 1013.7
20260508125008 64 333 2.0 3.0 0.00 0.00 0.00 52 1013.8
20260508124508 63 316 0.0 3.0 0.00 0.00 0.00 54 1013.8
20260508124008 63 355 1.0 3.0 0.00 0.00 0.00 50 1013.8
20260508123508 63 336 1.0 3.0 0.00 0.00 0.00 56 1013.7
20260508123312 61 241 0.0 1.0 0.00 0.00 0.00 59 1013.6
20260508123306 62 241 0.0 1.0 0.00 0.00 0.00 57 1013.8
20260508122007 61 293 0.0 1.0 0.00 0.00 0.00 62 1013.6
20260508121508 60 293 0.0 2.0 0.00 0.00 0.00 63 1013.5
20260508121008 60 293 0.0 2.0 0.00 0.00 0.00 65 1013.6
20260508120811 58 274 0.0 1.0 0.00 0.00 0.00 71 1013.5
20260508120807 60 274 0.0 2.0 0.00 0.00 0.00 67 1013.6
20260508115507 55 269 0.0 0.0 0.00 0.00 0.00 75 1013.4
20260508115007 53 269 0.0 0.0 0.00 0.00 0.00 76 1013.4
20260508114507 51 269 0.0 0.0 0.00 0.00 0.00 79 1013.3
20260508114008 50 269 0.0 0.0 0.00 0.00 0.00 81 1013.4
20260508113506 49 269 0.0 0.0 0.00 0.00 0.00 81 1013.3
20260508113245 48 269 0.0 0.0 0.00 0.00 0.00 84 1013.2
20260508112906 46 269 0.0 0.0 0.00 0.00 0.00 88 1013.1
20260508112814 47 269 0.0 0.0 0.00 0.00 0.00 86 1013.1
20260508112718 44 269 0.0 0.0 0.00 0.00 0.00 89 1013.0
20260508111527 44 269 0.0 0.0 0.00 0.00 0.00 89 1013.0
20260508111249 43 269 0.0 0.0 0.00 0.00 0.00 90 1012.8
20260508111209 42 269 0.0 0.0 0.00 0.00 0.00 90 1012.8
20260508111135 41 269 0.0 0.0 0.00 0.00 0.00 90 1012.6
20260508111125 41 269 0.0 0.0 0.00 0.00 0.00 90 1012.8
20260508111118 42 269 0.0 0.0 0.00 0.00 0.00 90 1012.8
20260508104516 41 269 0.0 0.0 0.00 0.00 0.00 90 1012.5
20260508104005 41 269 0.0 0.0 0.00 0.00 0.00 89 1012.6
20260508103505 41 269 0.0 0.0 0.00 0.00 0.00 88 1012.5
20260508103247 41 269 0.0 0.0 0.00 0.00 0.00 88 1012.5
20260508102504 41 269 0.0 0.0 0.00 0.00 0.00 88 1012.5
20260508102005 41 269 0.0 0.0 0.00 0.00 0.00 88 1012.4
20260508101503 41 269 0.0 0.0 0.00 0.00 0.00 88 1012.4
20260508101002 41 269 0.0 0.0 0.00 0.00 0.00 87 1012.3
20260508100745 41 269 0.0 0.0 0.00 0.00 0.00 86 1012.3
20260508100002 42 269 0.0 0.0 0.00 0.00 0.00 86 1012.1
20260508095503 42 269 0.0 0.0 0.00 0.00 0.00 86 1012.1
20260508095005 42 269 0.0 0.0 0.00 0.00 0.00 86 1012.0
20260508094740 42 269 0.0 0.0 0.00 0.00 0.00 86 1011.9
20260508094002 43 269 0.0 0.0 0.00 0.00 0.00 86 1012.0
20260508093502 43 269 0.0 0.0 0.00 0.00 0.00 86 1012.0
20260508093242 43 269 0.0 0.0 0.00 0.00 0.00 86 1012.0
20260508092502 43 269 0.0 0.0 0.00 0.00 0.00 85 1012.0
20260508092002 43 269 0.0 0.0 0.00 0.00 0.00 84 1012.0
20260508091454 44 269 0.0 1.0 0.00 0.00 0.00 84 1012.0
20260508090952 44 269 0.0 1.0 0.00 0.00 0.00 83 1011.9
20260508090452 44 269 0.0 2.0 0.00 0.00 0.00 82 1012.0
20260508085954 45 269 0.0 2.0 0.00 0.00 0.00 81 1011.8
20260508085452 45 269 0.0 2.0 0.00 0.00 0.00 80 1011.7
20260508084953 46 269 0.0 4.0 0.00 0.00 0.00 79 1011.7
20260508084733 46 266 0.0 4.0 0.00 0.00 0.00 78 1011.6
20260508083932 47 243 0.0 2.0 0.00 0.00 0.00 74 1011.6
20260508083433 47 243 0.0 2.0 0.00 0.00 0.00 71 1011.6
20260508083214 48 295 0.0 3.0 0.00 0.00 0.00 69 1011.6
20260508082431 48 295 0.0 3.0 0.00 0.00 0.00 69 1011.5
20260508081931 48 347 0.0 1.0 0.00 0.00 0.00 68 1011.5
20260508081430 49 347 0.0 2.0 0.00 0.00 0.00 68 1011.4
20260508080931 49 21 0.0 3.0 0.00 0.00 0.00 69 1011.3
20260508080432 49 238 1.0 3.0 0.00 0.00 0.00 69 1011.4
20260508075931 48 289 0.0 4.0 0.00 0.00 0.00 69 1011.4
20260508075431 48 289 1.0 4.0 0.00 0.00 0.00 70 1011.3
20260508074931 48 47 0.0 3.0 0.00 0.00 0.00 71 1011.2
20260508074430 48 48 0.0 4.0 0.00 0.00 0.00 73 1011.1
20260508073929 47 312 1.0 4.0 0.00 0.00 0.00 75 1011.1
20260508073430 47 230 1.0 3.0 0.00 0.00 0.00 77 1011.0
20260508072919 46 272 1.0 3.0 0.00 0.00 0.00 78 1010.9
20260508072419 46 309 0.0 0.0 0.00 0.00 0.00 77 1010.8
20260508071917 46 309 0.0 0.0 0.00 0.00 0.00 78 1010.8
20260508071419 47 309 0.0 0.0 0.00 0.00 0.00 78 1010.6
20260508071157 47 309 0.0 0.0 0.00 0.00 0.00 78 1010.6
20260508070415 47 309 0.0 1.0 0.00 0.00 0.00 77 1010.5
20260508070158 47 309 0.0 2.0 0.00 0.00 0.00 78 1010.6
20260508065414 47 309 0.0 2.0 0.00 0.00 0.00 78 1010.4
20260508064912 47 305 0.0 1.0 0.00 0.00 0.00 78 1010.4
20260508064408 47 305 1.0 1.0 0.00 0.00 0.00 79 1010.3
20260508063907 47 305 0.0 1.0 0.00 0.00 0.00 79 1010.4
20260508063409 47 305 0.0 2.0 0.00 0.00 0.00 80 1010.2
20260508063148 47 305 0.0 2.0 0.00 0.00 0.00 81 1010.1
20260508062404 47 310 1.0 2.0 0.00 0.00 0.00 82 1010.1
20260508061926 47 300 0.0 2.0 0.00 0.00 0.00 87 1010.1
20260508061918 47 10 0.0 2.0 0.00 0.00 0.00 84 1010.2
20260508060903 46 300 0.0 2.0 0.00 0.00 0.00 90 1010.0
20260508060403 46 300 0.0 2.0 0.00 0.00 0.00 92 1010.1
20260508055903 46 298 0.0 2.0 0.00 0.00 0.00 92 1010.1
20260508055401 46 298 0.0 2.0 0.00 0.00 0.00 92 1010.1
20260508054900 46 97 0.0 0.0 0.00 0.00 0.00 92 1010.2
20260508054400 46 97 0.0 0.0 0.00 0.00 0.00 93 1010.1
20260508053858 46 97 0.0 0.0 0.00 0.01 0.00 93 1010.1
20260508053359 46 97 0.0 0.0 0.00 0.01 0.00 92 1010.1
20260508052859 46 97 0.0 1.0 0.00 0.01 0.00 92 1010.1
20260508052358 46 97 0.0 1.0 0.00 0.01 0.00 92 1010.1
20260508051858 47 97 0.0 1.0 0.00 0.01 0.00 92 1010.1
20260508051639 47 97 0.0 0.0 0.00 0.01 0.00 92 1010.0
20260508050857 47 97 0.0 0.0 0.00 0.01 0.00 91 1010.0
20260508050400 47 97 0.0 0.0 0.00 0.01 0.00 92 1010.0
20260508045857 47 97 0.0 0.0 0.00 0.01 0.00 92 1009.9
20260508045356 47 97 0.0 0.0 0.00 0.01 0.00 92 1009.9
20260508044857 47 97 0.0 0.0 0.00 0.01 0.00 91 1009.9
20260508044355 47 97 0.0 0.0 0.00 0.01 0.00 91 1009.7
20260508043856 47 97 0.0 0.0 0.00 0.01 0.00 91 1009.6
20260508043358 47 97 0.0 0.0 0.00 0.01 0.00 91 1009.5
20260508042854 47 97 0.0 0.0 0.00 0.01 0.00 91 1009.6
20260508042353 47 97 0.0 1.0 0.00 0.01 0.00 91 1009.5
20260508041853 47 97 0.0 1.0 0.00 0.01 0.00 91 1009.4
20260508041351 47 100 0.0 0.0 0.00 0.01 0.00 91 1009.4
20260508040853 47 100 0.0 0.0 0.00 0.01 0.00 91 1009.4
20260508040349 47 100 0.0 0.0 0.00 0.01 0.00 90 1009.3
20260508035850 48 100 0.0 0.0 0.00 0.01 0.01 90 1009.2
20260508035349 48 100 0.0 0.0 0.00 0.01 0.01 90 1009.1
20260508034845 48 100 0.0 0.0 0.00 0.01 0.01 90 1009.1
20260508034343 48 100 0.0 1.0 0.00 0.01 0.01 90 1009.1
20260508033843 48 100 0.0 1.0 0.00 0.01 0.01 90 1009.0
20260508033339 48 100 0.0 1.0 0.00 0.01 0.01 90 1009.1
20260508032838 48 100 0.0 0.0 0.00 0.01 0.01 90 1009.1
20260508032335 48 100 0.0 1.0 0.00 0.01 0.01 89 1009.1
20260508032120 48 100 0.0 1.0 0.00 0.01 0.01 89 1009.0
20260508032114 48 100 0.0 1.0 0.00 0.01 0.01 89 1009.1
20260508031053 49 100 0.0 1.0 0.00 0.01 0.01 89 1009.0
20260508030559 49 100 0.0 1.0 0.00 0.01 0.01 89 1009.0
20260508025857 49 100 0.0 1.0 0.00 0.01 0.01 88 1009.0
20260508025848 48 100 0.0 1.0 0.00 0.01 0.01 88 1009.0
20260508024834 49 100 0.0 0.0 0.00 0.01 0.01 87 1008.9
20260508024333 49 100 0.0 0.0 0.00 0.01 0.01 87 1009.0
20260508023833 49 100 0.0 0.0 0.00 0.01 0.01 87 1008.9
20260508023331 49 100 0.0 0.0 0.00 0.01 0.01 86 1009.0
20260508023112 49 100 0.0 0.0 0.00 0.01 0.01 86 1009.0
20260508022327 49 100 0.0 0.0 0.00 0.01 0.01 86 1008.9
20260508021827 50 100 0.0 0.0 0.00 0.01 0.01 86 1008.9
20260508021327 50 100 0.0 0.0 0.00 0.01 0.01 86 1008.8
20260508020824 50 100 0.0 0.0 0.00 0.01 0.01 86 1008.9
20260508020326 50 100 0.0 0.0 0.00 0.01 0.01 85 1008.9
20260508015826 50 100 0.0 0.0 0.00 0.01 0.01 85 1008.7
20260508015325 50 100 0.0 0.0 0.00 0.01 0.01 85 1008.8
20260508014824 51 100 0.0 0.0 0.00 0.01 0.01 84 1008.7
20260508014324 51 100 0.0 0.0 0.00 0.01 0.01 84 1008.8
20260508013823 51 100 0.0 0.0 0.00 0.01 0.01 84 1008.6
20260508013322 51 100 0.0 0.0 0.00 0.01 0.01 83 1008.6
20260508012823 51 100 0.0 0.0 0.00 0.01 0.01 84 1008.7
20260508012321 51 100 0.0 0.0 0.00 0.01 0.01 83 1008.5
20260508011819 52 100 0.0 0.0 0.00 0.01 0.01 82 1008.5
20260508011559 52 100 0.0 0.0 0.00 0.01 0.01 82 1008.5
20260508010817 52 100 0.0 0.0 0.00 0.01 0.01 81 1008.4
20260508010317 52 100 0.0 1.0 0.00 0.01 0.01 81 1008.4
20260508005817 52 100 0.0 1.0 0.00 0.01 0.01 80 1008.3
20260508005314 53 100 0.0 0.0 0.00 0.01 0.01 80 1008.2
20260508005054 53 100 0.0 1.0 0.00 0.01 0.01 79 1008.0
20260508004316 53 100 0.0 1.0 0.00 0.01 0.01 79 1007.9
20260508003815 54 100 0.0 1.0 0.00 0.01 0.01 78 1008.0
20260508003314 54 96 0.0 1.0 0.00 0.01 0.01 78 1007.8
20260508003054 54 96 0.0 3.0 0.00 0.01 0.01 77 1007.8
20260508002312 55 96 0.0 3.0 0.00 0.01 0.01 76 1007.8
20260508002050 55 94 0.0 2.0 0.00 0.01 0.01 77 1007.8
20260508001312 55 93 0.0 2.0 0.00 0.01 0.01 76 1007.7
20260508000811 55 173 1.0 2.0 0.00 0.01 0.01 75 1007.7
20260508000312 56 121 0.0 3.0 0.00 0.01 0.01 75 1007.6